Time,TemperatureF,DewpointF,PressureIn,WindDirection,WindDirectionDegrees,WindSpeedMPH,WindSpeedGustMPH,Humidity,HourlyPrecipIn,Conditions,Clouds,dailyrainin,SolarRadiationWatts/m^2,SoftwareType,DateUTC
2013-04-06 00:03:00,36.9,32.2,29.79,ESE,119,19.0,22.0,83,0.00,,---,0.00,0.00,VWS V14.01,2013-04-06 05:03:00,
2013-04-06 00:18:00,37.3,32.3,29.79,ESE,111,13.0,21.0,82,0.00,,---,0.00,0.00,VWS V14.01,2013-04-06 05:18:00,
2013-04-06 00:33:00,37.9,32.6,29.78,SE,140,19.0,20.0,81,0.00,,---,0.00,0.00,VWS V14.01,2013-04-06 05:33:00,
2013-04-06 00:48:00,38.6,32.7,29.76,SE,125,16.0,22.0,79,0.00,,---,0.00,0.00,VWS V14.01,2013-04-06 05:48:00,
2013-04-06 01:03:00,39.1,32.8,29.75,SE,138,16.0,20.0,78,0.00,,---,0.00,0.00,VWS V14.01,2013-04-06 06:03:00,
2013-04-06 01:18:00,40.2,32.9,29.75,ESE,122,11.0,22.0,75,0.00,,---,0.00,0.00,VWS V14.01,2013-04-06 06:18:00,
2013-04-06 01:33:00,41.3,33.0,29.75,SE,135,17.0,20.0,72,0.00,,---,0.00,0.00,VWS V14.01,2013-04-06 06:33:00,
2013-04-06 01:48:00,41.9,32.8,29.74,SE,144,18.0,22.0,70,0.00,,---,0.00,0.00,VWS V14.01,2013-04-06 06:48:00,
2013-04-06 02:03:00,42.0,32.9,29.73,SE,136,14.0,19.0,70,0.00,,---,0.00,0.00,VWS V14.01,2013-04-06 07:03:00,
2013-04-06 02:18:00,42.2,33.1,29.72,SE,131,18.0,20.0,70,0.00,,---,0.00,0.00,VWS V14.01,2013-04-06 07:18:00,
2013-04-06 02:33:00,42.4,33.3,29.71,SE,136,19.0,20.0,70,0.00,,---,0.00,0.00,VWS V14.01,2013-04-06 07:33:00,
2013-04-06 02:48:00,42.8,33.7,29.69,SE,125,14.0,20.0,70,0.00,,---,0.00,0.00,VWS V14.01,2013-04-06 07:48:00,
2013-04-06 03:03:00,42.9,33.8,29.68,SSE,152,14.0,20.0,70,0.00,,---,0.00,0.00,VWS V14.01,2013-04-06 08:03:00,
2013-04-06 03:18:00,43.5,34.4,29.68,SE,140,13.0,21.0,70,0.00,,---,0.00,0.00,VWS V14.01,2013-04-06 08:18:00,
2013-04-06 03:33:00,43.7,34.6,29.67,SE,137,17.0,22.0,70,0.00,,---,0.00,0.00,VWS V14.01,2013-04-06 08:33:00,
2013-04-06 03:48:00,44.0,35.2,29.66,SE,132,14.0,24.0,71,0.00,,---,0.00,0.00,VWS V14.01,2013-04-06 08:48:00,
2013-04-06 04:03:00,44.2,35.4,29.65,SE,126,12.0,22.0,71,0.00,,---,0.00,0.00,VWS V14.01,2013-04-06 09:03:00,
2013-04-06 04:18:00,44.5,35.7,29.65,SE,142,13.0,24.0,71,0.00,,---,0.00,0.00,VWS V14.01,2013-04-06 09:18:00,
2013-04-06 04:33:00,44.5,35.7,29.63,SE,139,18.0,24.0,71,0.00,,---,0.00,0.00,VWS V14.01,2013-04-06 09:33:00,
2013-04-06 04:48:00,44.3,35.9,29.62,SE,133,16.0,23.0,72,0.00,,---,0.00,0.00,VWS V14.01,2013-04-06 09:48:00,
2013-04-06 05:03:00,44.4,36.0,29.61,SE,135,18.0,24.0,72,0.00,,---,0.00,0.00,VWS V14.01,2013-04-06 10:03:00,
2013-04-06 05:18:00,44.3,36.2,29.62,SSE,148,16.0,23.0,73,0.00,,---,0.00,0.00,VWS V14.01,2013-04-06 10:18:00,
2013-04-06 05:33:00,44.6,36.5,29.60,SE,130,18.0,23.0,73,0.00,,---,0.00,0.00,VWS V14.01,2013-04-06 10:33:00,
2013-04-06 05:48:00,44.5,36.7,29.60,SE,130,20.0,20.0,74,0.00,,---,0.00,0.00,VWS V14.01,2013-04-06 10:48:00,
2013-04-06 06:03:00,44.5,36.7,29.60,SSE,150,7.0,20.0,74,0.00,,---,0.00,0.00,VWS V14.01,2013-04-06 11:03:00,
2013-04-06 06:18:00,44.2,36.8,29.60,SE,134,13.0,17.0,75,0.00,,---,0.00,0.00,VWS V14.01,2013-04-06 11:18:00,
2013-04-06 06:33:00,44.3,36.9,29.59,SE,136,13.0,19.0,75,0.00,,---,0.00,0.00,VWS V14.01,2013-04-06 11:33:00,
2013-04-06 06:48:00,44.3,37.2,29.59,SE,131,12.0,18.0,76,0.00,,---,0.00,0.00,VWS V14.01,2013-04-06 11:48:00,
2013-04-06 07:03:00,44.1,37.0,29.59,SE,126,11.0,17.0,76,0.00,,---,0.00,5.00,VWS V14.01,2013-04-06 12:03:00,
2013-04-06 07:18:00,44.0,37.3,29.58,ESE,119,11.0,14.0,77,0.00,,---,0.00,21.00,VWS V14.01,2013-04-06 12:18:00,
2013-04-06 07:33:00,43.9,37.5,29.57,ESE,118,11.0,18.0,78,0.00,,---,0.00,35.00,VWS V14.01,2013-04-06 12:33:00,
2013-04-06 07:38:00,43.9,37.5,29.57,ESE,123,10.0,16.0,78,0.00,,---,0.00,37.00,VWS V14.01,2013-04-06 12:38:00,
2013-04-06 07:43:00,43.8,37.7,29.56,ESE,123,7.0,16.0,79,0.00,,---,0.00,39.00,VWS V14.01,2013-04-06 12:43:00,
2013-04-06 07:48:00,43.8,37.7,29.57,SE,128,12.0,14.0,79,0.00,,---,0.00,40.00,VWS V14.01,2013-04-06 12:48:00,
2013-04-06 07:53:00,43.8,38.0,29.57,ESE,115,7.0,14.0,80,0.00,,---,0.00,51.00,VWS V14.01,2013-04-06 12:53:00,
2013-04-06 07:58:00,43.8,38.0,29.58,ESE,118,6.0,14.0,80,0.00,,---,0.00,63.00,VWS V14.01,2013-04-06 12:58:00,
2013-04-06 08:03:00,43.9,37.8,29.58,SE,126,6.0,6.0,79,0.00,,---,0.00,83.00,VWS V14.01,2013-04-06 13:03:00,
2013-04-06 08:08:00,44.1,38.0,29.57,ESE,115,12.0,12.0,79,0.00,,---,0.00,104.00,VWS V14.01,2013-04-06 13:08:00,
2013-04-06 08:13:00,44.2,38.1,29.57,ESE,115,7.0,12.0,79,0.00,,---,0.00,130.00,VWS V14.01,2013-04-06 13:13:00,
2013-04-06 08:18:00,44.6,38.5,29.57,ESE,123,10.0,11.0,79,0.00,,---,0.00,158.00,VWS V14.01,2013-04-06 13:18:00,
2013-04-06 08:23:00,44.9,38.5,29.56,ESE,115,9.0,15.0,78,0.00,,---,0.00,104.00,VWS V14.01,2013-04-06 13:23:00,
2013-04-06 08:28:00,45.1,38.7,29.56,SE,124,12.0,15.0,78,0.00,,---,0.00,113.00,VWS V14.01,2013-04-06 13:28:00,
2013-04-06 08:33:00,45.1,38.3,29.56,ESE,109,10.0,15.0,77,0.00,,---,0.00,91.00,VWS V14.01,2013-04-06 13:33:00,
2013-04-06 08:38:00,45.1,38.7,29.56,ESE,109,12.0,17.0,78,0.00,,---,0.00,109.00,VWS V14.01,2013-04-06 13:38:00,
2013-04-06 08:43:00,45.1,38.7,29.55,SE,125,8.0,17.0,78,0.00,,---,0.00,155.00,VWS V14.01,2013-04-06 13:43:00,
2013-04-06 08:48:00,45.3,38.9,29.55,ESE,121,7.0,10.0,78,0.00,,---,0.00,139.00,VWS V14.01,2013-04-06 13:48:00,
2013-04-06 08:53:00,45.5,39.0,29.54,ESE,119,12.0,14.0,78,0.00,,---,0.00,116.00,VWS V14.01,2013-04-06 13:53:00,
2013-04-06 08:58:00,45.7,39.2,29.54,ESE,115,11.0,16.0,78,0.00,,---,0.00,156.00,VWS V14.01,2013-04-06 13:58:00,
2013-04-06 09:03:00,46.0,39.5,29.54,SE,125,10.0,10.0,78,0.00,,---,0.00,172.00,VWS V14.01,2013-04-06 14:03:00,
2013-04-06 09:08:00,46.3,39.5,29.53,ESE,123,11.0,15.0,77,0.00,,---,0.00,267.00,VWS V14.01,2013-04-06 14:08:00,
2013-04-06 09:13:00,46.9,40.4,29.53,SE,129,12.0,15.0,78,0.00,,---,0.00,283.00,VWS V14.01,2013-04-06 14:13:00,
2013-04-06 09:18:00,47.5,40.7,29.54,ESE,121,11.0,11.0,77,0.00,,---,0.00,329.00,VWS V14.01,2013-04-06 14:18:00,
2013-04-06 09:23:00,48.1,41.2,29.53,ESE,120,10.0,15.0,77,0.00,,---,0.00,239.00,VWS V14.01,2013-04-06 14:23:00,
2013-04-06 09:28:00,48.5,41.0,29.53,SE,126,13.0,15.0,75,0.00,,---,0.00,279.00,VWS V14.01,2013-04-06 14:28:00,
2013-04-06 09:33:00,48.6,41.0,29.52,SE,137,7.0,16.0,75,0.00,,---,0.00,156.00,VWS V14.01,2013-04-06 14:33:00,
2013-04-06 09:38:00,48.7,41.5,29.52,SE,136,6.0,15.0,76,0.00,,---,0.00,214.00,VWS V14.01,2013-04-06 14:38:00,
2013-04-06 09:43:00,49.1,41.9,29.52,SSE,150,11.0,15.0,76,0.00,,---,0.00,172.00,VWS V14.01,2013-04-06 14:43:00,
2013-04-06 09:48:00,49.4,42.2,29.52,SE,132,9.0,11.0,76,0.00,,---,0.00,276.00,VWS V14.01,2013-04-06 14:48:00,
2013-04-06 09:54:00,49.9,42.3,29.51,SE,132,9.0,13.0,75,0.00,,---,0.00,461.00,VWS V14.01,2013-04-06 14:54:00,
2013-04-06 09:59:00,51.0,43.4,29.51,SE,128,8.0,13.0,75,0.00,,---,0.00,533.00,VWS V14.01,2013-04-06 14:59:00,
2013-04-06 10:04:00,51.8,43.4,29.51,SE,146,12.0,12.0,73,0.00,,---,0.00,269.00,VWS V14.01,2013-04-06 15:04:00,
2013-04-06 10:09:00,53.1,44.7,29.51,SSE,168,11.0,16.0,73,0.00,,---,0.00,703.00,VWS V14.01,2013-04-06 15:09:00,
2013-04-06 10:14:00,53.2,44.4,29.51,South,169,13.0,16.0,72,0.00,,---,0.00,619.00,VWS V14.01,2013-04-06 15:14:00,
2013-04-06 10:19:00,53.6,44.4,29.51,South,176,13.0,15.0,71,0.00,,---,0.00,504.00,VWS V14.01,2013-04-06 15:19:00,
2013-04-06 10:24:00,53.9,44.7,29.51,SSE,165,7.0,16.0,71,0.00,,---,0.00,350.00,VWS V14.01,2013-04-06 15:24:00,
2013-04-06 10:29:00,54.0,44.8,29.51,SSE,163,10.0,18.0,71,0.00,,---,0.00,446.00,VWS V14.01,2013-04-06 15:29:00,
2013-04-06 10:34:00,54.8,45.6,29.51,South,184,15.0,15.0,71,0.00,,---,0.00,533.00,VWS V14.01,2013-04-06 15:34:00,
2013-04-06 10:39:00,55.5,45.9,29.51,South,187,18.0,18.0,70,0.00,,---,0.00,612.00,VWS V14.01,2013-04-06 15:39:00,
2013-04-06 10:44:00,55.8,46.2,29.51,SSE,153,9.0,18.0,70,0.00,,---,0.00,580.00,VWS V14.01,2013-04-06 15:44:00,
2013-04-06 10:50:00,55.8,45.8,29.51,South,180,11.0,15.0,69,0.00,,---,0.00,369.00,VWS V14.01,2013-04-06 15:50:00,
2013-04-06 10:55:00,55.8,46.2,29.51,SSW,196,10.0,16.0,70,0.00,,---,0.00,294.00,VWS V14.01,2013-04-06 15:55:00,
2013-04-06 11:00:00,56.2,46.6,29.50,South,190,8.0,16.0,70,0.00,,---,0.00,239.00,VWS V14.01,2013-04-06 16:00:00,
2013-04-06 11:05:00,56.2,46.6,29.50,SSW,193,11.0,12.0,70,0.00,,---,0.00,230.00,VWS V14.01,2013-04-06 16:05:00,
2013-04-06 11:10:00,56.2,46.2,29.51,SSW,205,7.0,15.0,69,0.00,,---,0.00,193.00,VWS V14.01,2013-04-06 16:10:00,
2013-04-06 11:15:00,56.5,46.8,29.51,SW,215,10.0,16.0,70,0.00,,---,0.00,279.00,VWS V14.01,2013-04-06 16:15:00,
2013-04-06 11:20:00,56.8,46.4,29.51,SW,226,12.0,15.0,68,0.00,,---,0.00,230.00,VWS V14.01,2013-04-06 16:20:00,
2013-04-06 11:25:00,56.8,46.4,29.51,SSW,206,12.0,15.0,68,0.00,,---,0.00,165.00,VWS V14.01,2013-04-06 16:25:00,
2013-04-06 11:30:00,56.7,46.3,29.51,SW,229,12.0,15.0,68,0.00,,---,0.00,139.00,VWS V14.01,2013-04-06 16:30:00,
2013-04-06 11:35:00,56.5,46.5,29.51,SW,229,7.0,11.0,69,0.00,,---,0.00,146.00,VWS V14.01,2013-04-06 16:35:00,
2013-04-06 11:40:00,56.3,46.3,29.50,WSW,243,8.0,11.0,69,0.00,,---,0.00,104.00,VWS V14.01,2013-04-06 16:40:00,
2013-04-06 11:45:00,56.1,46.1,29.50,WSW,242,4.0,11.0,69,0.00,,---,0.00,121.00,VWS V14.01,2013-04-06 16:45:00,
2013-04-06 11:50:00,56.1,46.8,29.50,WSW,246,5.0,10.0,71,0.00,,---,0.00,125.00,VWS V14.01,2013-04-06 16:50:00,
2013-04-06 11:55:00,55.9,46.7,29.50,WSW,245,6.0,10.0,71,0.00,,---,0.00,207.00,VWS V14.01,2013-04-06 16:55:00,
2013-04-06 12:00:00,55.9,47.4,29.50,SW,236,4.0,10.0,73,0.00,,---,0.00,158.00,VWS V14.01,2013-04-06 17:00:00,
2013-04-06 12:05:00,55.9,46.7,29.50,WSW,242,6.0,6.0,71,0.00,,---,0.00,151.00,VWS V14.01,2013-04-06 17:05:00,
2013-04-06 12:10:00,55.9,47.0,29.51,WSW,250,4.0,6.0,72,0.00,,---,0.00,158.00,VWS V14.01,2013-04-06 17:10:00,
2013-04-06 12:15:00,55.9,47.4,29.51,WSW,250,5.0,6.0,73,0.00,,---,0.00,200.00,VWS V14.01,2013-04-06 17:15:00,
2013-04-06 12:20:00,56.0,46.7,29.51,WSW,248,4.0,8.0,71,0.00,,---,0.00,225.00,VWS V14.01,2013-04-06 17:20:00,
2013-04-06 12:25:00,56.2,46.9,29.51,West,261,9.0,11.0,71,0.00,,---,0.00,241.00,VWS V14.01,2013-04-06 17:25:00,
2013-04-06 12:30:00,56.3,47.4,29.52,West,265,9.0,12.0,72,0.00,,---,0.00,216.00,VWS V14.01,2013-04-06 17:30:00,
2013-04-06 12:35:00,56.3,47.0,29.52,West,279,9.0,11.0,71,0.00,,---,0.00,174.00,VWS V14.01,2013-04-06 17:35:00,
2013-04-06 12:40:00,56.3,46.7,29.52,West,280,7.0,11.0,70,0.00,,---,0.00,183.00,VWS V14.01,2013-04-06 17:40:00,
2013-04-06 12:45:00,56.1,47.2,29.52,WNW,288,17.0,24.0,72,0.00,,---,0.00,134.00,VWS V14.01,2013-04-06 17:45:00,
2013-04-06 12:50:00,54.5,46.4,29.53,West,281,18.0,23.0,74,0.00,,---,0.00,116.00,VWS V14.01,2013-04-06 17:50:00,
2013-04-06 12:55:00,52.9,45.9,29.53,WNW,299,18.0,25.0,77,0.00,,---,0.00,130.00,VWS V14.01,2013-04-06 17:55:00,
2013-04-06 13:00:00,51.5,45.2,29.53,WNW,287,15.0,25.0,79,0.00,,---,0.00,128.00,VWS V14.01,2013-04-06 18:00:00,
2013-04-06 13:05:00,50.6,45.0,29.53,WNW,291,16.0,24.0,81,0.00,,---,0.00,118.00,VWS V14.01,2013-04-06 18:05:00,
2013-04-06 13:10:00,50.0,44.7,29.54,West,271,18.0,27.0,82,0.00,,---,0.00,111.00,VWS V14.01,2013-04-06 18:10:00,
2013-04-06 13:15:00,49.7,44.4,29.55,WNW,286,15.0,27.0,82,0.00,,---,0.00,79.00,VWS V14.01,2013-04-06 18:15:00,
2013-04-06 13:20:00,49.4,44.1,29.55,WNW,288,18.0,20.0,82,0.00,,---,0.00,46.00,VWS V14.01,2013-04-06 18:20:00,
2013-04-06 13:25:00,49.0,44.1,29.54,WNW,298,22.0,22.0,83,0.00,,---,0.00,65.00,VWS V14.01,2013-04-06 18:25:00,
2013-04-06 13:30:00,48.5,43.9,29.54,WNW,297,19.0,22.0,84,0.01,,---,0.01,60.00,VWS V14.01,2013-04-06 18:30:00,
2013-04-06 13:35:00,47.9,43.9,29.54,NW,317,13.0,17.0,86,0.02,,---,0.02,54.00,VWS V14.01,2013-04-06 18:35:00,
2013-04-06 13:40:00,47.4,43.7,29.53,NW,307,16.0,18.0,87,0.04,,---,0.04,51.00,VWS V14.01,2013-04-06 18:40:00,
2013-04-06 13:45:00,46.7,43.3,29.53,WNW,302,12.0,18.0,88,0.07,,---,0.07,49.00,VWS V14.01,2013-04-06 18:45:00,
2013-04-06 13:50:00,46.3,43.2,29.53,NW,311,17.0,18.0,89,0.08,,---,0.08,44.00,VWS V14.01,2013-04-06 18:50:00,
2013-04-06 13:55:00,45.9,43.1,29.53,WNW,300,13.0,19.0,90,0.09,,---,0.09,33.00,VWS V14.01,2013-04-06 18:55:00,
2013-04-06 14:00:00,46.0,43.5,29.55,West,281,13.0,19.0,91,0.09,,---,0.09,30.00,VWS V14.01,2013-04-06 19:00:00,
2013-04-06 14:05:00,46.0,43.5,29.54,WNW,286,14.0,16.0,91,0.09,,---,0.09,32.00,VWS V14.01,2013-04-06 19:05:00,
2013-04-06 14:10:00,45.8,43.3,29.54,WNW,288,15.0,19.0,91,0.09,,---,0.09,40.00,VWS V14.01,2013-04-06 19:10:00,
2013-04-06 14:15:00,45.4,42.9,29.53,WNW,284,13.0,22.0,91,0.09,,---,0.09,42.00,VWS V14.01,2013-04-06 19:15:00,
2013-04-06 14:20:00,45.0,42.2,29.53,WNW,282,20.0,24.0,90,0.09,,---,0.09,51.00,VWS V14.01,2013-04-06 19:20:00,
2013-04-06 14:25:00,44.5,42.0,29.52,NW,305,20.0,25.0,91,0.09,,---,0.09,121.00,VWS V14.01,2013-04-06 19:25:00,
2013-04-06 14:30:00,44.3,41.6,29.54,WNW,290,24.0,28.0,90,0.09,,---,0.09,239.00,VWS V14.01,2013-04-06 19:30:00,
2013-04-06 14:35:00,44.5,42.0,29.53,WNW,296,16.0,26.0,91,0.08,,---,0.09,281.00,VWS V14.01,2013-04-06 19:35:00,
2013-04-06 14:40:00,44.8,42.0,29.55,WNW,300,19.0,26.0,90,0.08,,---,0.09,202.00,VWS V14.01,2013-04-06 19:40:00,
2013-04-06 14:46:00,45.0,42.2,29.54,NW,304,22.0,26.0,90,0.08,,---,0.09,283.00,VWS V14.01,2013-04-06 19:46:00,
2013-04-06 14:51:00,45.1,42.3,29.54,WNW,295,19.0,24.0,90,0.01,,---,0.09,403.00,VWS V14.01,2013-04-06 19:51:00,
2013-04-06 14:56:00,45.4,42.6,29.55,WNW,299,20.0,25.0,90,0.01,,---,0.09,334.00,VWS V14.01,2013-04-06 19:56:00,
2013-04-06 15:01:00,45.6,42.8,29.55,NW,317,25.0,26.0,90,0.01,,---,0.09,236.00,VWS V14.01,2013-04-06 20:01:00,
2013-04-06 15:06:00,45.5,42.5,29.55,NW,313,18.0,25.0,89,0.00,,---,0.09,302.00,VWS V14.01,2013-04-06 20:06:00,
2013-04-06 15:11:00,45.7,42.7,29.55,WNW,291,15.0,25.0,89,0.00,,---,0.09,171.00,VWS V14.01,2013-04-06 20:11:00,
2013-04-06 15:16:00,45.6,42.3,29.55,NW,304,23.0,25.0,88,0.00,,---,0.09,197.00,VWS V14.01,2013-04-06 20:16:00,
2013-04-06 15:21:00,45.7,42.4,29.55,WNW,303,23.0,26.0,88,0.00,,---,0.09,276.00,VWS V14.01,2013-04-06 20:21:00,
2013-04-06 15:26:00,45.9,42.5,29.55,NW,306,20.0,27.0,88,0.00,,---,0.09,223.00,VWS V14.01,2013-04-06 20:26:00,
2013-04-06 15:31:00,46.0,42.7,29.56,NW,306,16.0,27.0,88,0.00,,---,0.09,192.00,VWS V14.01,2013-04-06 20:31:00,
2013-04-06 15:36:00,46.3,43.0,29.56,NW,318,20.0,24.0,88,0.00,,---,0.09,336.00,VWS V14.01,2013-04-06 20:36:00,
2013-04-06 15:41:00,46.6,42.9,29.56,NW,311,16.0,24.0,87,0.00,,---,0.09,315.00,VWS V14.01,2013-04-06 20:41:00,
2013-04-06 15:46:00,46.7,42.7,29.56,NW,307,19.0,24.0,86,0.00,,---,0.09,200.00,VWS V14.01,2013-04-06 20:46:00,
2013-04-06 15:52:00,46.6,42.6,29.56,WNW,295,19.0,23.0,86,0.00,,---,0.09,179.00,VWS V14.01,2013-04-06 20:52:00,
2013-04-06 15:57:00,46.4,42.5,29.57,WNW,298,17.0,26.0,86,0.00,,---,0.09,127.00,VWS V14.01,2013-04-06 20:57:00,
2013-04-06 16:02:00,46.2,42.2,29.58,NW,306,26.0,26.0,86,0.00,,---,0.09,179.00,VWS V14.01,2013-04-06 21:02:00,
2013-04-06 16:07:00,46.1,41.8,29.58,NW,304,24.0,28.0,85,0.00,,---,0.09,239.00,VWS V14.01,2013-04-06 21:07:00,
2013-04-06 16:12:00,46.1,41.5,29.58,NW,311,18.0,28.0,84,0.00,,---,0.09,329.00,VWS V14.01,2013-04-06 21:12:00,
2013-04-06 16:17:00,46.4,41.8,29.58,NW,315,22.0,28.0,84,0.00,,---,0.09,239.00,VWS V14.01,2013-04-06 21:17:00,
2013-04-06 16:22:00,46.5,41.6,29.59,NW,307,25.0,26.0,83,0.00,,---,0.09,248.00,VWS V14.01,2013-04-06 21:22:00,
2013-04-06 16:27:00,46.6,41.4,29.59,NW,309,25.0,27.0,82,0.00,,---,0.09,318.00,VWS V14.01,2013-04-06 21:27:00,
2013-04-06 16:32:00,46.8,41.6,29.60,NW,304,22.0,27.0,82,0.00,,---,0.09,237.00,VWS V14.01,2013-04-06 21:32:00,
2013-04-06 16:37:00,46.6,41.1,29.60,NW,317,19.0,28.0,81,0.00,,---,0.09,230.00,VWS V14.01,2013-04-06 21:37:00,
2013-04-06 16:42:00,46.3,40.8,29.60,WNW,302,22.0,28.0,81,0.00,,---,0.09,181.00,VWS V14.01,2013-04-06 21:42:00,
2013-04-06 16:47:00,46.0,40.5,29.61,WNW,298,21.0,28.0,81,0.00,,---,0.09,214.00,VWS V14.01,2013-04-06 21:47:00,
2013-04-06 16:52:00,45.9,40.7,29.61,NNW,329,25.0,27.0,82,0.00,,---,0.09,204.00,VWS V14.01,2013-04-06 21:52:00,
2013-04-06 16:57:00,45.8,40.3,29.61,NW,306,16.0,27.0,81,0.00,,---,0.09,174.00,VWS V14.01,2013-04-06 21:57:00,
2013-04-06 17:02:00,45.5,39.7,29.62,NW,315,21.0,30.0,80,0.00,,---,0.09,97.00,VWS V14.01,2013-04-06 22:02:00,
2013-04-06 17:07:00,45.2,39.4,29.62,NW,309,17.0,27.0,80,0.00,,---,0.09,127.00,VWS V14.01,2013-04-06 22:07:00,
2013-04-06 17:12:00,45.2,39.7,29.62,NW,308,23.0,27.0,81,0.00,,---,0.09,329.00,VWS V14.01,2013-04-06 22:12:00,
2013-04-06 17:17:00,45.3,39.8,29.62,NW,311,23.0,31.0,81,0.00,,---,0.09,260.00,VWS V14.01,2013-04-06 22:17:00,
2013-04-06 17:22:00,45.4,39.9,29.63,NW,319,21.0,27.0,81,0.00,,---,0.09,127.00,VWS V14.01,2013-04-06 22:22:00,
2013-04-06 17:27:00,45.1,39.3,29.63,NW,317,22.0,29.0,80,0.00,,---,0.09,232.00,VWS V14.01,2013-04-06 22:27:00,
2013-04-06 17:32:00,45.0,39.2,29.64,NW,319,22.0,29.0,80,0.00,,---,0.09,193.00,VWS V14.01,2013-04-06 22:32:00,
2013-04-06 17:37:00,44.7,38.9,29.64,NW,317,18.0,28.0,80,0.00,,---,0.09,199.00,VWS V14.01,2013-04-06 22:37:00,
2013-04-06 17:42:00,44.5,38.7,29.65,NW,317,17.0,28.0,80,0.00,,---,0.09,137.00,VWS V14.01,2013-04-06 22:42:00,
2013-04-06 17:47:00,44.5,39.0,29.65,NW,318,20.0,28.0,81,0.00,,---,0.09,127.00,VWS V14.01,2013-04-06 22:47:00,
2013-04-06 17:52:00,44.4,38.9,29.66,NW,315,20.0,25.0,81,0.00,,---,0.09,83.00,VWS V14.01,2013-04-06 22:52:00,
2013-04-06 17:57:00,44.2,38.8,29.66,NW,311,18.0,25.0,81,0.00,,---,0.09,100.00,VWS V14.01,2013-04-06 22:57:00,
2013-04-06 18:02:00,44.2,38.8,29.66,NW,315,18.0,25.0,81,0.00,,---,0.09,169.00,VWS V14.01,2013-04-06 23:02:00,
2013-04-06 18:07:00,44.3,38.8,29.66,NW,315,14.0,23.0,81,0.00,,---,0.09,132.00,VWS V14.01,2013-04-06 23:07:00,
2013-04-06 18:12:00,44.4,38.9,29.66,WNW,303,16.0,24.0,81,0.00,,---,0.09,308.00,VWS V14.01,2013-04-06 23:12:00,
2013-04-06 18:17:00,44.7,38.9,29.67,WNW,299,16.0,24.0,80,0.00,,---,0.09,158.00,VWS V14.01,2013-04-06 23:17:00,
2013-04-06 18:22:00,44.5,38.7,29.67,NW,305,24.0,24.0,80,0.00,,---,0.09,95.00,VWS V14.01,2013-04-06 23:22:00,
2013-04-06 18:27:00,44.3,38.8,29.67,NW,311,17.0,24.0,81,0.00,,---,0.09,70.00,VWS V14.01,2013-04-06 23:27:00,
2013-04-06 18:33:00,44.0,38.5,29.67,NW,307,18.0,24.0,81,0.00,,---,0.09,54.00,VWS V14.01,2013-04-06 23:33:00,
2013-04-06 18:38:00,43.9,38.5,29.68,NW,317,16.0,24.0,81,0.00,,---,0.09,40.00,VWS V14.01,2013-04-06 23:38:00,
2013-04-06 18:43:00,43.7,38.3,29.68,NW,318,15.0,24.0,81,0.00,,---,0.09,35.00,VWS V14.01,2013-04-06 23:43:00,
2013-04-06 18:48:00,43.5,38.4,29.68,NW,310,19.0,24.0,82,0.00,,---,0.09,30.00,VWS V14.01,2013-04-06 23:48:00,
2013-04-06 18:53:00,43.3,38.2,29.69,NW,309,17.0,24.0,82,0.00,,---,0.09,25.00,VWS V14.01,2013-04-06 23:53:00,
2013-04-06 18:58:00,43.2,38.1,29.69,NW,311,19.0,24.0,82,0.00,,---,0.09,19.00,VWS V14.01,2013-04-06 23:58:00,
2013-04-06 19:03:00,42.9,38.1,29.70,NW,325,18.0,25.0,83,0.00,,---,0.09,14.00,VWS V14.01,2013-04-07 00:03:00,
2013-04-06 19:08:00,42.6,37.8,29.70,NW,309,20.0,23.0,83,0.00,,---,0.09,11.00,VWS V14.01,2013-04-07 00:08:00,
2013-04-06 19:13:00,42.4,37.6,29.71,WNW,296,17.0,24.0,83,0.00,,---,0.09,14.00,VWS V14.01,2013-04-07 00:13:00,
2013-04-06 19:18:00,42.1,37.6,29.71,WNW,293,18.0,24.0,84,0.00,,---,0.09,11.00,VWS V14.01,2013-04-07 00:18:00,
2013-04-06 19:23:00,41.9,37.1,29.71,NW,325,16.0,23.0,83,0.00,,---,0.09,7.00,VWS V14.01,2013-04-07 00:23:00,
2013-04-06 19:28:00,41.8,37.0,29.71,WNW,294,19.0,24.0,83,0.00,,---,0.09,7.00,VWS V14.01,2013-04-07 00:28:00,
2013-04-06 19:33:00,41.6,37.1,29.71,NW,317,17.0,24.0,84,0.00,,---,0.09,5.00,VWS V14.01,2013-04-07 00:33:00,
2013-04-06 19:38:00,41.4,36.9,29.72,NW,317,20.0,23.0,84,0.00,,---,0.09,0.00,VWS V14.01,2013-04-07 00:38:00,
2013-04-06 19:43:00,41.1,36.6,29.72,NW,321,19.0,23.0,84,0.00,,---,0.09,0.00,VWS V14.01,2013-04-07 00:43:00,
2013-04-06 19:48:00,40.9,36.5,29.72,WNW,302,20.0,21.0,84,0.00,,---,0.09,0.00,VWS V14.01,2013-04-07 00:48:00,
2013-04-06 19:53:00,40.6,36.5,29.72,NW,312,20.0,23.0,85,0.00,,---,0.09,0.00,VWS V14.01,2013-04-07 00:53:00,
2013-04-06 19:59:00,40.3,36.2,29.72,NW,312,17.0,23.0,85,0.00,,---,0.09,0.00,VWS V14.01,2013-04-07 00:59:00,
2013-04-06 20:04:00,40.2,36.3,29.72,WNW,297,20.0,20.0,86,0.00,,---,0.09,0.00,VWS V14.01,2013-04-07 01:04:00,
2013-04-06 20:09:00,39.9,35.8,29.72,NW,315,13.0,20.0,85,0.00,,---,0.09,0.00,VWS V14.01,2013-04-07 01:09:00,
2013-04-06 20:14:00,39.7,35.9,29.73,NW,312,13.0,20.0,86,0.00,,---,0.09,0.00,VWS V14.01,2013-04-07 01:14:00,
2013-04-06 20:19:00,39.5,35.4,29.73,NNW,333,14.0,18.0,85,0.00,,---,0.09,0.00,VWS V14.01,2013-04-07 01:19:00,
2013-04-06 20:24:00,39.3,35.5,29.73,NW,308,15.0,19.0,86,0.00,,---,0.09,0.00,VWS V14.01,2013-04-07 01:24:00,
2013-04-06 20:29:00,39.1,35.3,29.74,NW,310,13.0,19.0,86,0.00,,---,0.09,0.00,VWS V14.01,2013-04-07 01:29:00,
2013-04-06 20:34:00,38.9,35.4,29.74,NW,319,20.0,20.0,87,0.00,,---,0.09,0.00,VWS V14.01,2013-04-07 01:34:00,
2013-04-06 20:39:00,38.7,35.2,29.74,NW,314,12.0,20.0,87,0.00,,---,0.09,0.00,VWS V14.01,2013-04-07 01:39:00,
2013-04-06 20:44:00,38.6,35.1,29.75,NW,315,10.0,20.0,87,0.00,,---,0.09,0.00,VWS V14.01,2013-04-07 01:44:00,
2013-04-06 20:50:00,38.4,34.9,29.74,NW,311,12.0,16.0,87,0.00,,---,0.09,0.00,VWS V14.01,2013-04-07 01:50:00,
2013-04-06 20:55:00,38.2,35.0,29.74,NW,315,18.0,19.0,88,0.00,,---,0.09,0.00,VWS V14.01,2013-04-07 01:55:00,
2013-04-06 21:00:00,38.1,34.9,29.75,NW,304,12.0,19.0,88,0.00,,---,0.09,0.00,VWS V14.01,2013-04-07 02:00:00,
2013-04-06 21:05:00,38.0,34.8,29.76,NW,319,12.0,14.0,88,0.00,,---,0.09,0.00,VWS V14.01,2013-04-07 02:05:00,
2013-04-06 21:10:00,37.9,34.7,29.76,NW,319,11.0,16.0,88,0.00,,---,0.09,0.00,VWS V14.01,2013-04-07 02:10:00,
2013-04-06 21:15:00,37.9,34.7,29.76,NW,314,7.0,16.0,88,0.00,,---,0.09,0.00,VWS V14.01,2013-04-07 02:15:00,
2013-04-06 21:20:00,37.7,34.5,29.76,NW,315,17.0,19.0,88,0.00,,---,0.09,0.00,VWS V14.01,2013-04-07 02:20:00,
2013-04-06 21:25:00,37.7,34.5,29.76,NW,314,16.0,21.0,88,0.00,,---,0.09,0.00,VWS V14.01,2013-04-07 02:25:00,
2013-04-06 21:30:00,37.5,34.0,29.76,NW,317,16.0,21.0,87,0.00,,---,0.09,0.00,VWS V14.01,2013-04-07 02:30:00,
2013-04-06 21:35:00,37.5,34.3,29.76,WNW,303,16.0,16.0,88,0.00,,---,0.09,0.00,VWS V14.01,2013-04-07 02:35:00,
2013-04-06 21:40:00,37.4,34.2,29.76,NW,310,19.0,19.0,88,0.00,,---,0.09,0.00,VWS V14.01,2013-04-07 02:40:00,
2013-04-06 21:45:00,37.3,34.1,29.77,NW,309,13.0,19.0,88,0.00,,---,0.09,0.00,VWS V14.01,2013-04-07 02:45:00,
2013-04-06 21:50:00,37.2,33.7,29.77,NW,316,14.0,17.0,87,0.00,,---,0.09,0.00,VWS V14.01,2013-04-07 02:50:00,
2013-04-06 21:55:00,36.9,33.4,29.77,NW,314,18.0,21.0,87,0.00,,---,0.09,0.00,VWS V14.01,2013-04-07 02:55:00,
2013-04-06 22:00:00,36.8,33.3,29.77,NW,315,12.0,21.0,87,0.00,,---,0.09,0.00,VWS V14.01,2013-04-07 03:00:00,
2013-04-06 22:05:00,36.7,33.2,29.77,NW,314,15.0,16.0,87,0.00,,---,0.09,0.00,VWS V14.01,2013-04-07 03:05:00,
2013-04-06 22:10:00,36.5,33.3,29.77,NW,316,7.0,16.0,88,0.00,,---,0.09,0.00,VWS V14.01,2013-04-07 03:10:00,
2013-04-06 22:15:00,36.4,33.2,29.77,NW,316,6.0,16.0,88,0.00,,---,0.09,0.00,VWS V14.01,2013-04-07 03:15:00,
2013-04-06 22:20:00,36.2,33.3,29.77,NW,311,7.0,14.0,89,0.00,,---,0.09,0.00,VWS V14.01,2013-04-07 03:20:00,
2013-04-06 22:25:00,36.1,33.2,29.78,NW,311,12.0,14.0,89,0.00,,---,0.09,0.00,VWS V14.01,2013-04-07 03:25:00,
2013-04-06 22:30:00,35.9,33.0,29.79,WNW,303,9.0,16.0,89,0.00,,---,0.09,0.00,VWS V14.01,2013-04-07 03:30:00,
2013-04-06 22:35:00,35.7,32.8,29.79,WNW,303,11.0,12.0,89,0.00,,---,0.09,0.00,VWS V14.01,2013-04-07 03:35:00,
2013-04-06 22:40:00,35.6,32.7,29.79,WNW,289,10.0,12.0,89,0.00,,---,0.09,0.00,VWS V14.01,2013-04-07 03:40:00,
2013-04-06 22:45:00,35.7,33.1,29.79,WNW,287,9.0,12.0,90,0.00,,---,0.09,0.00,VWS V14.01,2013-04-07 03:45:00,
2013-04-06 22:50:00,35.7,33.1,29.80,WNW,286,13.0,13.0,90,0.00,,---,0.09,0.00,VWS V14.01,2013-04-07 03:50:00,
2013-04-06 22:55:00,35.6,32.7,29.80,WNW,286,13.0,17.0,89,0.00,,---,0.09,0.00,VWS V14.01,2013-04-07 03:55:00,
2013-04-06 23:00:00,35.5,32.6,29.79,WNW,291,14.0,18.0,89,0.00,,---,0.09,0.00,VWS V14.01,2013-04-07 04:00:00,
2013-04-06 23:01:00,35.5,32.6,29.79,WNW,294,12.0,18.0,89,0.00,,---,0.09,0.00,VWS V14.01,2013-04-07 04:01:00,
2013-04-06 23:06:00,35.3,32.4,29.80,NW,304,13.0,18.0,89,0.00,,---,0.09,0.00,VWS V14.01,2013-04-07 04:06:00,
2013-04-06 23:11:00,35.1,32.2,29.80,NW,309,15.0,18.0,89,0.00,,---,0.09,0.00,VWS V14.01,2013-04-07 04:11:00,
2013-04-06 23:16:00,35.0,32.4,29.79,NW,311,14.0,18.0,90,0.00,,---,0.09,0.00,VWS V14.01,2013-04-07 04:16:00,
2013-04-06 23:22:00,35.0,32.4,29.79,WNW,302,10.0,15.0,90,0.00,,---,0.09,0.00,VWS V14.01,2013-04-07 04:22:00,
2013-04-06 23:27:00,35.0,32.4,29.80,NW,309,14.0,20.0,90,0.00,,---,0.09,0.00,VWS V14.01,2013-04-07 04:27:00,
2013-04-06 23:32:00,35.0,32.4,29.80,WNW,294,14.0,20.0,90,0.00,,---,0.09,0.00,VWS V14.01,2013-04-07 04:32:00,
2013-04-06 23:37:00,34.9,32.3,29.80,WNW,292,11.0,16.0,90,0.00,,---,0.09,0.00,VWS V14.01,2013-04-07 04:37:00,
2013-04-06 23:42:00,34.9,32.3,29.80,NW,306,14.0,16.0,90,0.00,,---,0.09,0.00,VWS V14.01,2013-04-07 04:42:00,
2013-04-06 23:46:00,34.8,32.2,29.80,WNW,299,13.0,19.0,90,0.00,,---,0.09,0.00,VWS V14.01,2013-04-07 04:46:00,
2013-04-06 23:51:00,34.8,32.2,29.80,NW,321,15.0,20.0,90,0.00,,---,0.09,0.00,VWS V14.01,2013-04-07 04:51:00,
2013-04-06 23:56:00,34.8,32.2,29.81,WNW,298,13.0,20.0,90,0.00,,---,0.09,0.00,VWS V14.01,2013-04-07 04:56:00,